User: anonymous   Login
Location: Lombard
(41.8800°N, 88.0080°W)
Time: 19:35:23
(UTC-06:00)
Language:

Transit 2A - Orbit

View from above orbital plane
View from above orbital plane
View from above satellite
View from above satellite

Ground track
Ground track

The orbit data is extracted from the following two-line orbital elements,

1 00045U 60007A   24059.39746675  .00000608  00000-0  17902-3 0  9995
2 00045  66.6934  59.3616 0247193  50.8153 311.4620 14.34547838259520
Epoch (UTC): 28 February 2024 09:32:21
Eccentricity: 0.0247193
inclination: 66.6934°
perigee height: 600 km
apogee height: 953 km
right ascension of ascending node: 59.3616°
argument of perigee: 50.8153°
revolutions per day: 14.34547838
mean anomaly at epoch: 311.4620°
orbit number at epoch: 25952

The dashed part of the orbit path shows where the satellite is in the earth's shadow,  

DLR